#timestamp,LO_Frequency,Hit,StdDev 
1595080815.6,286047000.2,N
1595080835.5,286047000.0,N
1595080855.3,286047000.6,N
1595080875.2,286047000.9,N
1595080895.9,286046999.7,N
1595080915.7,286047000.7,N
1595080935.6,286046999.9,N
1595080955.4,286047001.0,N
1595080975.3,286046998.5,N
1595080995.1,286046998.2,N
1595080996.0,286046998.2,N
1595081015.8,286047001.1,N
1595081035.7,286046998.7,N
1595081055.5,286046998.4,N
1595081075.3,286047000.7,N
1595081095.2,286047000.4,N
1595081115.0,286046999.7,N
1595081115.9,286046999.7,N
1595081135.8,286047000.2,N
1595081155.6,286047000.5,N
1595081175.4,286046999.9,N
1595081195.3,286046998.2,N
1595081215.1,286047000.9,N
1595081235.9,286046998.2,N
1595081255.7,286046998.5,N
1595081275.5,286046996.5,Y
1595081295.4,286046999.6,P
1595081315.2,286046999.4,P
1595081335.1,286046998.8,P
1595081336.0,286046998.8,Y
1595081355.8,286047001.2,P
1595081375.6,286047001.0,N
1595081395.5,286047001.1,N
1595081415.3,286046998.1,N
1595081435.2,286047000.5,N
1595081455.9,286046998.2,N
1595081475.7,286046998.2,N
1595081495.6,286046998.5,N
1595081515.4,286047001.2,N
1595081535.2,286046998.4,N
1595081555.1,286046997.2,N
1595081556.0,286046997.2,N
1595081575.8,286046995.0,Y
1595081595.7,286046996.8,P
1595081615.5,286046998.3,N
1595081635.3,286046998.5,N
1595081655.2,286046999.1,N
1595081675.0,286046999.4,N
1595081675.9,286046999.4,N
1595081695.8,286046998.3,N
1595081715.6,286047001.0,N
1595081735.4,286047001.1,N
1595081755.3,286047000.4,N
1595081775.1,286047001.7,N
1595081795.8,286047002.1,N
1595081815.7,286047001.8,N
1595081835.5,286047002.6,N
1595081855.4,286047000.1,N
1595081875.2,286047000.3,N
1595081895.0,286047001.0,N
1595081895.9,286047001.0,N
1595081915.8,286046998.1,N
1595081935.6,286046998.2,N
1595081955.5,286046998.9,N
1595081975.3,286046998.2,N
1595081995.1,286046998.9,N
1595082015.9,286047000.1,N
1595082035.7,286047000.0,N
1595082055.5,286046998.2,N
1595082075.4,286047000.3,N
1595082095.2,286047002.7,N
1595082115.1,286047002.3,N
1595082116.0,286047002.3,N
1595082135.8,286047003.6,N
1595082155.6,286047005.5,Y
1595082175.5,286047005.5,P
1595082195.3,286047005.2,N
1595082215.1,286047003.6,N
1595082235.9,286047003.8,N
1595082255.7,286047004.0,N
1595082275.6,286047001.3,N
1595082295.4,286047003.8,N
1595082315.2,286047003.9,N
1595082335.1,286047004.1,N
1595082336.0,286047004.1,N
1595082355.8,286047003.1,N
1595082375.7,286047004.8,Y
1595082395.5,286046999.8,P
1595082415.3,286047000.0,N
1595082435.2,286047001.0,N
1595082455.0,286047000.8,N
1595082455.9,286047000.8,N
1595082475.7,286047001.0,N
1595082495.6,286047000.8,N
1595082515.4,286047000.4,N
1595082535.3,286047000.2,N
1595082555.1,286046998.3,N
1595082586.0,286046998.1,E
1595082595.0,286047001.1,N
1595082595.9,286047001.1,P
1595082615.8,286047000.5,P
1595082635.6,286047000.5,N
1595082655.5,286046998.1,Y
1595082675.3,286046998.8,P
1595082695.1,286046996.6,P
1595082715.9,286046996.9,N
1595082735.7,286046999.1,N
1595082755.5,286046998.9,N
1595082775.4,286046998.3,N
1595082795.2,286046998.9,N
1595082815.1,286046998.1,N
1595082816.0,286046998.1,N
1595082835.8,286047000.7,N
1595082855.7,286046998.3,N
1595082875.5,286047000.7,N
1595082895.3,286047001.1,N
1595082915.2,286047000.8,N
1595082935.0,286047000.7,N
1595082935.9,286047000.7,N
1595082955.8,286047001.1,N
1595082975.6,286047000.1,N
1595082995.4,286047000.9,N
1595083015.3,286046998.5,N
1595083035.1,286046999.0,N
1595083055.8,286046999.6,N
1595083075.7,286046999.3,N
1595083095.5,286047001.2,N
1595083115.4,286047001.1,N
1595083135.2,286047001.0,N
1595083155.0,286047001.1,N
1595083155.9,286047001.1,N
1595083175.8,286046998.5,N
1595083195.6,286046998.4,N
1595083215.5,286046999.0,N
1595083235.3,286046999.1,N
1595083255.1,286046999.1,N
1595083275.9,286046998.4,N
1595083295.7,286046998.1,N
1595083315.6,286046998.7,N
1595083335.4,286046999.1,N
1595083355.2,286046999.1,N
1595083375.1,286046996.7,N
1595083376.0,286046996.7,N
1595083395.8,286046998.7,N
1595083415.6,286046998.1,N
1595083435.5,286046998.3,N
1595083455.3,286046998.8,N
1595083475.2,286046998.9,N
1595083495.9,286046996.9,N
1595083515.7,286046996.5,N
1595083535.6,286046999.5,N
1595083555.4,286046999.2,N
1595083575.3,286046998.6,N
1595083595.1,286046998.3,N
1595083596.0,286046998.3,N
1595083615.8,286046999.0,N
1595083635.7,286046998.6,N
1595083655.5,286046998.2,N
1595083675.3,286046998.2,N
1595083695.2,286047001.2,N
1595083715.0,286046999.4,N
1595083715.9,286046999.4,N
1595083735.8,286046996.9,Y
1595083755.6,286046998.4,P
1595083775.4,286046998.8,P
1595083795.3,286046999.1,P
1595083815.1,286046996.9,Y
1595083835.9,286047001.1,P
1595083855.7,286047000.0,N
1595083875.5,286047000.6,N
1595083895.4,286047001.0,N
1595083915.2,286046998.1,N
1595083935.0,286046998.4,N
1595083936.0,286046998.4,N
1595083955.8,286046999.0,N
1595083975.6,286046998.9,N
1595083995.5,286046998.1,N
1595084015.3,286046999.3,N
1595084035.1,286046998.7,N
1595084055.9,286046998.9,N
1595084075.7,286046998.5,N
1595084095.6,286046998.1,N
1595084115.4,286046998.1,N
1595084135.2,286046998.5,N
1595084155.1,286046998.8,N
1595084156.0,286046998.8,N
1595084175.8,286046999.0,N
1595084195.7,286046998.6,N
1595084215.5,286047000.6,N
1595084235.3,286046998.9,N
1595084255.2,286046998.6,N
1595084275.0,286046998.9,N
1595084275.9,286046998.9,N
1595084295.7,286047000.6,N
1595084315.6,286047000.9,N
1595084335.4,286047000.6,N
1595084355.3,286047000.3,N
1595084375.1,286046998.6,N
1595084376.0,286046998.6,N
1595084395.8,286046998.6,N
